Santiago de Compostela, Spain

10:46 AM CEST on May 28, 2018 (GMT +0200)
Santiago

Weather History for LEST - July, 2013

Change the Weather History Date:

Monday, July 22, 2013

  Actual Average Record
Temperature  
Mean Temperature 66 °F -  
Max Temperature 75 °F 74 °F 91 °F (2008)
Min Temperature 57 °F 55 °F 48 °F (2007)
Cooling Degree Days 1    
Growing Degree Days 16 (Base 50)    
Moisture  
Dew Point 58 °F    
Average Humidity 84    
Maximum Humidity 100    
Minimum Humidity 57    
Precipitation  
Precipitation 0.00 in - - ()
Sea Level Pressure  
Sea Level Pressure 30.06 in    
Wind  
Wind Speed 2 mph ()    
Max Wind Speed 9 mph    
Max Gust Speed -    
Visibility 5.0 miles    
Events      
Averages and records for this station are not official NWS values.
T = Trace of Precipitation, MM = Missing Value Source: Averaged Metar Reports

Daily Weather History Graph

Daily Weather History Graph

Search for Another Location

Airport or City:

Astronomy

Jul. 22, 2013 Rise Set
Actual Time 7:14 AM CEST 10:04 PM CEST
Civil Twilight 6:41 AM CEST 10:38 PM CEST
Nautical Twilight 5:59 AM CEST 11:20 PM CEST
Astronomical Twilight 5:10 AM CEST 12:08 AM CEST
Moon 9:38 PM CEST (7/22) 6:56 AM CEST (7/22)
Length of Visible Light 15h 56m
Length of Day
14h 50m
Full, 100% of the Moon is Illuminated
Jul 22
Full
Jul 22
Full
Jul 29
Last Quarter
Aug 6
New
Aug 14
First Quarter

Hourly Weather History & Observations

Time (CEST) Temp. Dew Point Humidity Pressure Visibility Wind Dir Wind Speed Gust Speed Precip Events Conditions
12:00 AM 60.8 °F 57.2 °F 88% 30.09 in 5.6 mi Variable 2.3 mph - N/A   Mostly Cloudy
12:30 AM 60.8 °F 57.2 °F 88% 30.09 in 5.6 mi Calm Calm - N/A   Overcast
1:00 AM 59.0 °F 57.2 °F 94% 30.09 in 5.6 mi Variable 2.3 mph - N/A   Mostly Cloudy
1:30 AM 57.2 °F 55.4 °F 94% 30.06 in 5.6 mi Variable 2.3 mph - N/A   Scattered Clouds
2:00 AM 57.2 °F 57.2 °F 100% 30.09 in 5.0 mi Variable 2.3 mph - N/A   Scattered Clouds
2:30 AM 57.2 °F 57.2 °F 100% 30.09 in 5.0 mi Variable 1.2 mph - N/A   Scattered Clouds
3:00 AM 57.2 °F 57.2 °F 100% 30.09 in 5.0 mi Variable 2.3 mph - N/A   Mostly Cloudy
3:30 AM 57.2 °F 57.2 °F 100% 30.06 in 5.0 mi Variable 2.3 mph - N/A   Mostly Cloudy
4:00 AM 59.0 °F 57.2 °F 94% 30.06 in 5.0 mi Calm Calm - N/A   Mostly Cloudy
4:30 AM 59.0 °F 57.2 °F 94% 30.06 in 5.0 mi Variable 2.3 mph - N/A   Mostly Cloudy
5:00 AM 59.0 °F 57.2 °F 94% 30.06 in 3.7 mi Variable 1.2 mph - N/A   Mostly Cloudy
5:30 AM 59.0 °F 57.2 °F 94% 30.06 in 3.7 mi Calm Calm - N/A   Mostly Cloudy
6:00 AM 59.0 °F 57.2 °F 94% 30.06 in 3.7 mi Calm Calm - N/A   Mostly Cloudy
6:30 AM 59.0 °F 57.2 °F 94% 30.04 in 3.7 mi Variable 2.3 mph - N/A   Mostly Cloudy
7:00 AM 59.0 °F 57.2 °F 94% 30.06 in 3.7 mi Variable 2.3 mph - N/A   Mostly Cloudy
7:30 AM 59.0 °F 57.2 °F 94% 30.06 in 3.7 mi Variable 2.3 mph - N/A   Overcast
8:00 AM 59.0 °F 59.0 °F 100% 30.06 in 3.1 mi Variable 2.3 mph - N/A   Overcast
8:30 AM 59.0 °F 59.0 °F 100% 30.06 in 2.5 mi Calm Calm - N/A   Overcast
9:00 AM 59.0 °F 59.0 °F 100% 30.06 in 2.8 mi Variable 1.2 mph - N/A   Overcast
9:30 AM 59.0 °F 59.0 °F 100% 30.06 in 3.1 mi Variable 2.3 mph - N/A   Overcast
10:00 AM 59.0 °F 59.0 °F 100% 30.06 in 3.1 mi Variable 2.3 mph - N/A   Overcast
10:30 AM 59.0 °F 57.2 °F 94% 30.06 in 3.1 mi Variable 1.2 mph - N/A   Overcast
11:00 AM 60.8 °F 59.0 °F 94% 30.06 in 3.1 mi Variable 2.3 mph - N/A   Overcast
11:30 AM 60.8 °F 57.2 °F 88% 30.06 in 4.3 mi Calm Calm - N/A   Overcast
12:00 PM 62.6 °F 57.2 °F 82% 30.06 in 4.3 mi Variable 2.3 mph - N/A   Overcast
12:30 PM 62.6 °F 57.2 °F 82% 30.09 in 4.3 mi Variable 1.2 mph - N/A   Overcast
1:00 PM 64.4 °F 57.2 °F 77% 30.09 in 4.3 mi Variable 2.3 mph - N/A   Overcast
1:30 PM 68.0 °F 57.2 °F 68% 30.09 in 5.0 mi Calm Calm - N/A   Mostly Cloudy
2:00 PM 69.8 °F 57.2 °F 64% 30.06 in 5.6 mi Variable 1.2 mph - N/A   Scattered Clouds
2:30 PM 71.6 °F 57.2 °F 60% 30.06 in 5.6 mi Variable 2.3 mph - N/A   Unknown
3:00 PM 71.6 °F 57.2 °F 60% 30.06 in 5.6 mi Variable 1.2 mph - N/A   Unknown
3:30 PM 71.6 °F 57.2 °F 60% 30.06 in 5.6 mi Calm Calm - N/A   Scattered Clouds
4:00 PM 73.4 °F 57.2 °F 57% 30.06 in 6.2 mi Variable 2.3 mph - N/A   Partly Cloudy
4:30 PM 73.4 °F 59.0 °F 61% 30.06 in 6.2 mi Variable 1.2 mph - N/A   Mostly Cloudy
5:00 PM 75.2 °F 59.0 °F 57% 30.06 in 6.2 mi WNW 3.5 mph - N/A   Mostly Cloudy
5:30 PM 71.6 °F 59.0 °F 64% 30.06 in 6.2 mi NNW 6.9 mph - N/A   Mostly Cloudy
6:00 PM 71.6 °F 59.0 °F 64% 30.06 in 6.2 mi North 6.9 mph - N/A   Scattered Clouds
6:30 PM 69.8 °F 60.8 °F 73% 30.04 in 6.2 mi North 9.2 mph - N/A   Mostly Cloudy
7:00 PM 68.0 °F 59.0 °F 73% 30.06 in 6.2 mi North 6.9 mph - N/A   Scattered Clouds
7:30 PM 68.0 °F 59.0 °F 73% 30.04 in 6.2 mi North 5.8 mph - N/A   Partly Cloudy
8:00 PM 68.0 °F 59.0 °F 73% 30.04 in 6.2 mi NE 4.6 mph - N/A   Partly Cloudy
8:30 PM 66.2 °F 59.0 °F 78% 30.06 in 6.2 mi NNE 3.5 mph - N/A   Mostly Cloudy
9:00 PM 66.2 °F 59.0 °F 78% 30.06 in 6.2 mi NE 4.6 mph - N/A   Scattered Clouds
9:30 PM 64.4 °F 59.0 °F 83% 30.06 in 6.2 mi NNE 4.6 mph - N/A   Overcast
10:00 PM 62.6 °F 57.2 °F 82% 30.06 in 6.2 mi Variable 2.3 mph - N/A   Scattered Clouds
10:30 PM 62.6 °F 57.2 °F 82% 30.06 in 6.2 mi NNE 3.5 mph - N/A   Mostly Cloudy
11:00 PM 62.6 °F 57.2 °F 82% 30.06 in 6.2 mi Variable 2.3 mph - N/A   Mostly Cloudy
11:30 PM 60.8 °F 59.0 °F 94% 30.09 in 6.2 mi North 4.6 mph - N/A   Mostly Cloudy